www.pogodaiklimat.ru
ПОГОДА в Житомире

Архив погоды в Житомире (Житомирская область, Украина)

Время
(UTC), дата
03 27.11
06 27.11
09 27.11
12 27.11
15 27.11
18 27.11
21 27.11
00 28.11
03 28.11
06 28.11
09 28.11
12 28.11
15 28.11
18 28.11
21 28.11
00 29.11
03 29.11
06 29.11
09 29.11
12 29.11
15 29.11
18 29.11
21 29.11
00 30.11
03 30.11
06 30.11
09 30.11
12 30.11
15 30.11
18 30.11
21 30.11
00 1.12
03 1.12
06 1.12
09 1.12
12 1.12
15 1.12
18 1.12
21 1.12
00 2.12
03 2.12
06 2.12
09 2.12
12 2.12
15 2.12
18 2.12
21 2.12
00 3.12
03 3.12
06 3.12
09 3.12
12 3.12
15 3.12
18 3.12
21 3.12
00 4.12
Ветер
(напр.,м/с)
Видим. Явления Облачность Т
(С)
Тd
(С)
f
(%)
Тe
(С)
Тes
(С)
Комфортность P
(гПа)
Po
(гПа)
Тmin
(С)
Tmax
(С)
R
(мм)
R24
(мм)
S
(см)
Ю 3 4000 м дымка {ливн. дождь} 10/10 300 м
[Cb cap]
+6.6 +5.5 93 +3 +3 тепло 993.4 967.3
Ю 1 4000 м дымка {ливн. дождь} 10/8 600 м
[Sc As trans]
+6.7 +5.4 91 +6 +6 тепло 994.4 968.3 +4.8 3
ЮЗ 2 10 км 9/4 600 м
[Sc Ac trans Cs]
+8.3 +4.7 78 +6 +7 тепло 995.8 969.8
З 2 10 км 10/6 600 м
[Sc Ac und]
+8.6 +3.8 72 +7 +7 тепло 997.3 971.3
СЗ 1 10 км 9/8 600 м
[Sc Ci fib]
+7.4 +3.7 77 +7 +7 тепло 999.3 973.1
штиль 0 4000 м дымка 3/3 600 м
[Sc]
+4.6 +3.4 92 +3 +3 тепло 1001.4 974.9 +8.8
штиль 0 500 м туман ясно +0.6 +0.6 100 -1 -1 по сезону 1003.0 976.1
штиль 0 500 м переохл. туман [диам. гололёда 1 мм] ясно -1.5 -1.5 100 -3 -3 по сезону 1004.1 976.9
штиль 0 500 м переохл. туман ясно -1.7 -1.7 100 -3 -3 по сезону 1003.9 976.7
штиль 0 500 м переохл. туман [диам. гололёда 2 мм] ясно -1.5 -1.5 100 -3 -3 по сезону 1003.8 976.6 -2.3
В 1 4000 м дымка {туман} 10/4 600 м
[Sc Ac und]
+1.9 +1.4 96 0 0 по сезону 1002.8 976.0
ЮВ 2 10 км {туман} 10/5 600 м
[Sc Ac trans Ci fib]
+7.0 +4.0 81 +5 +5 тепло 1000.3 974.1
ЮВ 2 10 км 10/8 600 м
[Sc Ac und]
+8.2 +5.1 81 +6 +6 тепло 999.2 973.1
Ю 3 10 км ясно +7.7 +5.0 83 +5 +5 тепло 999.3 973.2 +8.9
ЮВ 2 4000 м дымка 10/10 300 м
[St]
+7.2 +6.3 94 +5 +5 тепло 998.5 972.3
ЮВ 1 2000 м дымка 10/10 200 м
[St]
+8.0 +7.4 96 +7 +7 тепло 996.6 970.6
Ю 3 4000 м дымка 10/10 300 м
[St]
+8.5 +7.0 90 +6 +6 тепло 994.1 968.2
Ю 3 10 км 10/10 300 м
[St]
+9.2 +6.9 86 +7 +7 тепло 991.9 966.1 +7.2
Ю 4 10 км 10/10 300 м
[Cb cap]
+8.5 +6.6 88 +5 +5 тепло 989.8 964.0
З 1 4000 м дымка 10/10 200 м
[Cb cap]
+8.8 +7.3 90 +8 +8 тепло 987.0 961.3
З 3 10 км в посл. час ливневой дождь 10/9 300 м
[Cb cap Ac und]
+7.8 +5.4 85 +5 +5 тепло 986.9 961.1
З 6 10 км {ливн. дождь} 10/10 300 м
[Cb cap]
+3.3 +0.5 82 -2 -2 по сезону 990.0 963.7 +9.3 0.0
З 7 10 км 10/10 300 м
[Cb cap]
+2.5 -2.0 72 -4 -4 по сезону 991.9 965.4
З 6 10 км 10/10 300 м
[Cb cap]
+2.6 -2.2 71 -3 -3 по сезону 993.0 966.5
З 6 10 км {ливн. дождь} 10/10 300 м
[Cb cap]
+2.5 -2.9 68 -3 -3 по сезону 994.7 968.2
З 5 10 км {ливн. дождь} 10/10 300 м
[Cb cap]
+2.1 -3.5 66 -3 -3 по сезону 997.4 970.7 +2.0 0.0
З 4 10 км 8/8 600 м
[Cb cap Ac trans Ci fib]
+2.6 -4.2 61 -2 -2 по сезону 997.8 971.2
З 3 4000 м слаб. ливневой снег 10/8 600 м
[Cb cap Ac und]
+0.8 -1.2 86 -4 -4 по сезону 998.6 971.8
З 3 10 км {ливн. снег} 10/10 600 м
[Cb cap]
+1.4 -2.6 75 -3 -3 по сезону 999.1 972.3
З 2 10 км {ливн. снег} 6/6 600 м
[Sc]
+0.4 -3.6 74 -3 -3 по сезону 997.7 970.9 +3.3 1
ЮЗ 2 10 км 8/0
[Ac trans Ci fib]
-1.1 -3.9 81 -5 -5 по сезону 996.3 969.4
ЮЗ 2 2000 м ливневой снег 10/10 600 м
[Cb cap]
-1.1 -2.6 90 -5 -5 по сезону 994.6 967.7
З 2 2000 м слаб. ливневой снег 10/10 300 м
[Cb cap]
-0.1 -1.5 90 -4 -4 по сезону 993.4 966.6
З 1 4000 м слаб. ливневой дождь со снегом 10/10 300 м
[Cb cap]
+0.8 -0.3 92 -1 -1 по сезону 995.6 968.9 -1.2 3 3
СЗ 3 10 км в посл. час ливневой снег 10/10 300 м
[Cb cap]
+1.1 -0.5 89 -3 -3 по сезону 999.2 972.4
СЗ 3 10 км в посл. час крупа {ливн. снег} 9/8 600 м
[Cb cap Ac trans]
+1.4 -2.7 74 -3 -3 по сезону 1001.6 974.8
С 1 10 км 4/0
[Ci fib]
-1.5 -5.9 72 -3 -3 по сезону 1004.9 977.7
СЗ 1 10 км 10/0
[Ac trans Ci fib]
-2.0 -5.3 78 -4 -4 по сезону 1005.1 977.8 +2.2 0.5
Ю 1 10 км 8/0
[Ac trans Ci fib]
-1.7 -4.2 83 -4 -4 по сезону 1004.7 977.5
Ю 2 10 км слаб. ливневой снег 10/10 600 м
[Cb cap]
0.0 -2.6 83 -4 -4 по сезону 1003.1 976.1
Ю 3 10 км {ливн. снег} 10/10 600 м
[Cb cap]
+1.4 -2.6 75 -3 -3 по сезону 1000.8 974.0
Ю 2 10 км {ливн. снег} 9/6 600 м
[Sc Ac trans Ci fib]
+2.0 -1.9 75 -1 -1 по сезону 1000.3 973.6 -2.0 0.0 1
ЮЗ 2 10 км в посл. час ливневой дождь 10/6 600 м
[Cb cap Ac und]
+4.1 -0.4 72 +2 +2 тепло 1000.5 974.0
ЮЗ 2 10 км {ливн. дождь} 10/3 600 м
[Cb cap Ac trans Cs]
+6.4 +0.9 68 +4 +5 тепло 999.2 972.9
ЮЗ 1 10 км 10/3 600 м
[Cb cap Ac trans Cs]
+5.2 +1.7 78 +4 +4 тепло 1000.0 973.6
ЮЗ 2 10 км 10/0
[Ac As]
+4.9 +1.1 76 +2 +2 тепло 1001.4 974.9 +7.0 0.0
ЮЗ 1 10 км 10/5 600 м
[Sc Ac und]
+5.0 +1.5 78 +4 +4 тепло 1001.9 975.4
штиль 0 10 км 10/0
[Ac trans Ci fib]
+4.2 +2.0 86 +3 +3 тепло 1001.5 975.0
штиль 0 4000 м дымка 10/3 600 м
[Sc Ac und]
+3.5 +2.3 92 +2 +2 тепло 1000.2 973.6
С 2 4000 м слаб. ливневой дождь 10/8 600 м
[Cb cap Ac und]
+3.1 +2.1 93 -0 -0 по сезону 1001.2 974.6 +2.8 0.4
СЗ 2 2000 м слаб. ливневой дождь со снегом 10/10 300 м
[Cb cap]
+0.6 -0.2 94 -3 -3 по сезону 1003.9 976.9
СЗ 2 4000 м слаб. ливневой дождь со снегом 10/8 300 м
[Cb cap Ac und]
+0.7 -0.4 92 -3 -3 по сезону 1005.7 978.7
СЗ 2 10 км {ливн. снег} 10/8 600 м
[Cb cap Ac und]
+0.5 -1.5 86 -3 -3 по сезону 1008.6 981.5
З 2 4000 м дымка {ливн. снег} 5/3 300 м
[St Ac trans]
-0.6 -2.1 90 -4 -4 по сезону 1011.1 983.8 +3.4 3
З 2 10 км ясно -2.3 -3.9 89 -6 -6 по сезону 1012.7 985.2
З 3 10 км ясно -2.8 -4.8 86 -8 -8 прохладно 1014.0 986.4
Местоположение метеостанции Житомир (Житомирская область, Украина): широта 50.23 долгота 28.73 высота над уровнем моря 224 м.
В архиве по умолчанию представлена погода в Житомире за последнюю неделю. Архивные данные за месяц целиком и за предыдущие месяцы, начиная с января 2011 года, Вы можете получить, выбрав интересующий диапазон дат из раскрывающегося списка и нажав кнопку "Найти!".
*Определитесь, кто Вы:
Внимание! Время в таблицах - всемирное. Для получения местного времени необходимо прибавить поправку, которая равна 2 ч.
Смотрите также архив погоды в соседних городах и на ближайших метеорологических станциях:
Партнеры нашего сайта:      
Пояснения к столбцам:
  • Ветер - указаны скорость ветра в м/с - средняя за 10 мин, порывы в срок и между сроками (в фигурных скобках) и направление, откуда дует ветер: С - северный,
  • СВ - северо-восточный, В - восточный, ЮВ - юго-восточный, Ю - южный, ЮЗ - юго-западный, З - западный, СЗ - северо-западный.
  • Видимость - горизонтальная дальность видимости в метрах или километрах. При видимости от 1 до 10 км при отсутствии осадков обычно наблюдается дымка, при ухудшении видимости до 1 км и менее - туман. В сухую погоду видимость может ухудшаться дымом, пылью или мглою.
  • Явления - указаны атмосферные явления, наблюдавшиеся в срок или в последний час перед сроком; фигурными скобками обозначены явления, наблюдавшиеся между сроками (за 1-3 часа до срока); квадратными скобками обозначены град или гололедные отложения с указанием их диаметра в мм.
  • Облачность - указаны через наклонную черту общая и нижняя облачность в баллах и высота нижней границы облаков в метрах; квадратными скобками обозначены формы облаков: Ci - перистые, Cs - перисто-слоистые, Cc - перисто-кучевые, Ac - высококучевые, As - высокослоистые, Sc - слоисто-кучевые, Ns - слоисто-дождевые, Cu - кучевые, Cb - кучево-дождевые. Подробнее классификацию облаков см. в Атласе облаков (PDF).
  • T - Температура воздуха - температура, измеренная на высоте 2 м над землей.
  • Td - Температура точки росы - температура, при понижении до которой содержащийся в воздухе водяной пар достигнет насыщения.
  • f - Относительная влажность воздуха - влажноcть воздуха, измеренная на высоте 2 м над землей.
  • Te - Эффективная температура - температура, которую ощущает одетый по сезону человек в тени. Характеристика душности погоды. При расчете учитывается влияние влажности воздуха и скорости ветра на теплоощущения человека.
  • Tes - Эффективная температура на солнце - температура, которую ощущает человек, с поправкой на солнечный нагрев. Характеристика знойности погоды. Зависит от высоты солнца над горизонтом, облачности и скорости ветра. Ночью, в пасмурную погоду, а также при ветре 12 м/с и более поправка равна нулю.
  • P - Атмосферное давление - приведенное к уровню моря атмосферное давление.
  • Po - Атмосферное давление - измеренное на уровне метеостанции атмосферное давление.
  • Tmin - Минимальная температура - минимум температуры воздуха на высоте 2 м над землей.
  • Tmax - Максимальная температура - максимум температуры воздуха на высоте 2 м над землей.
  • R - Количество осадков - Количество выпавших осадков за период времени, мм. При наведении курсора мыши на число - период времени, за который выпало указанное количество осадков.
  • R24 - Количество осадков - Количество выпавших осадков за 24 часа, мм.
  • S - Снежный покров - Высота снежного покрова, см. При наведении курсора мыши на число - состояние снежного покрова и степень покрытия местности в баллах.